[[{"header":{"parameterUnit":"m.s-1","parameterCategory":1,"la1":30.2991,"la2":30.254,"lo1":-89.0895,"lo2":-89.0444,"dy":0.0017,"dx":0.0017,"nx":28,"ny":28,"refTime":"2025-09-18T03:00:00:Z","depth":0,"parameterNumber":2,"parameterNumberName":"U-component_of_WINDS"},"data":[0,0,0,0,0,0,0,0,0,0,0,0,0,0,0,0,0,0,0,0,0,0,0,0,0,0,0,0,0,0,0,0,0,0,0,0,0,0,0,0,0,0,0,0,0,0,0,0,0,0,0,0,0,0,0,0,0,0,-0.2888,-0.2888,0,-0.2943,-0.2943,-0.2944,-0.2936,-0.2935,-0.2935,-0.2934,-0.2993,-0.2995,-0.2997,0,0,0,0,0,0,0,0,0,0,0,0,0,-0.2778,-0.278,-0.2888,-0.2888,-0.2889,-0.2943,-0.2943,-0.2944,-0.2937,-0.2935,-0.2934,-0.2933,-0.2992,-0.2995,-0.2998,0,0,0,0,0,0,0,0,0,0,0,0,0,-0.2829,-0.2781,-0.2887,-0.2892,-0.2892,-0.2942,-0.2943,-0.2944,-0.2937,-0.2935,-0.2934,-0.2933,-0.2991,-0.2994,-0.2998,-0.3048,0,0,-0.3009,-0.3011,0,0,0,0,0,0,0,0,-0.2826,-0.2833,-0.289,-0.2891,-0.2892,-0.2931,-0.2926,-0.2979,-0.2937,-0.292,-0.2934,-0.2932,-0.2974,-0.2978,-0.2992,-0.3051,-0.3054,-0.301,-0.3012,-0.3013,-0.3014,0,0,0,0,0,0,0,-0.2823,-0.283,-0.2909,-0.2891,-0.2892,-0.2891,-0.2897,-0.2936,-0.2954,-0.2921,-0.2921,-0.2927,-0.2974,-0.2988,-0.2993,-0.3054,-0.3009,-0.3013,-0.3015,-0.3016,-0.3158,-0.316,0,0,0,0,0,0,-0.2818,-0.2828,-0.2908,-0.2911,-0.2855,-0.2895,-0.2901,-0.292,-0.2953,-0.2957,-0.2929,-0.2927,-0.2983,-0.2989,-0.2995,-0.3057,-0.3013,-0.3017,-0.3019,-0.3157,-0.3159,-0.316,0,0,0,0,0,0,-0.2815,-0.2825,-0.2905,-0.2869,-0.2879,-0.2898,-0.292,-0.2922,-0.2937,-0.2959,-0.2962,-0.294,-0.2982,-0.299,-0.3035,-0.3059,-0.3018,-0.3022,-0.3155,-0.3157,-0.3159,-0.3181,0,0,0,0,0,0,-0.2812,-0.2824,-0.2843,-0.287,-0.2881,-0.2944,-0.2921,-0.2924,-0.2943,-0.2941,-0.2971,-0.2974,-0.2982,-0.303,-0.3039,-0.3063,-0.3024,-0.3153,-0.3156,-0.3159,-0.3178,-0.3184,-0.3188,0,0,0,0,0,-0.2808,-0.2847,-0.2844,-0.2853,-0.2905,-0.2945,-0.2952,-0.2959,-0.2944,-0.2964,-0.2978,-0.2973,-0.3055,-0.3034,-0.3044,-0.3071,-0.3151,-0.3155,-0.3158,-0.3176,-0.3182,-0.3188,0,0,0,0,0,0,-0.2823,-0.2851,-0.2847,-0.2896,-0.2918,-0.2944,-0.2969,-0.2966,-0.2993,-0.2991,-0.2999,-0.3006,-0.3051,-0.3065,-0.3042,-0.3121,-0.3101,-0.3107,-0.3111,-0.3117,-0.3122,-0.3119,-0.3028,0,0,0,0,0,-0.2832,-0.2861,-0.2884,-0.2924,-0.2936,-0.295,-0.2968,-0.2971,-0.2995,-0.3005,-0.3022,-0.3046,-0.3078,-0.3098,-0.3128,-0.3179,-0.3186,-0.3202,-0.3207,-0.3211,-0.3217,-0.3246,-0.3254,-0.3172,-0.3172,-0.3172,0,0,-0.2851,-0.2869,-0.2888,-0.2928,-0.2946,-0.2977,-0.2958,-0.2992,-0.3016,-0.301,-0.3054,-0.3067,-0.3095,-0.3144,-0.3166,-0.3157,-0.3241,-0.3216,-0.3219,-0.3222,-0.3251,-0.3259,-0.3265,-0.3174,-0.3174,-0.3174,0,0,-0.2902,-0.2918,-0.2954,-0.2972,-0.2998,-0.3008,-0.3016,-0.3042,-0.3051,-0.3095,-0.3091,-0.312,-0.3173,-0.3193,-0.321,-0.3267,-0.3264,-0.3277,-0.3304,-0.3333,-0.3339,-0.3345,-0.3367,-0.3375,-0.3282,-0.3282,-0.3282,0,-0.2922,-0.2968,-0.2973,-0.3007,-0.3026,-0.3021,-0.3058,-0.3075,-0.3111,-0.3124,-0.3112,-0.3179,-0.3197,-0.3251,-0.3265,-0.3278,-0.3289,-0.3274,-0.3338,-0.3344,-0.3349,-0.337,-0.3378,-0.3283,-0.3283,-0.3283,-0.3283,0,-0.2993,-0.3025,-0.3051,-0.3084,-0.3105,-0.3141,-0.3152,-0.3173,-0.3174,-0.3184,-0.3229,-0.3251,-0.3285,-0.3297,-0.3299,-0.3352,-0.3345,-0.3336,-0.3316,-0.3358,-0.3378,-0.3386,-0.3285,-0.3285,-0.3284,-0.3284,0,0,-0.3056,-0.3091,-0.3101,-0.3116,-0.3145,-0.317,-0.3206,-0.3238,-0.3257,-0.3281,-0.3312,-0.3356,-0.3348,-0.3367,-0.3371,-0.3396,-0.3441,-0.3383,-0.3384,-0.3394,-0.3502,-0.3511,-0.352,-0.3439,-0.344,-0.3441,-0.35,0,-0.3111,-0.3173,-0.3178,-0.3234,-0.3265,-0.326,-0.3291,-0.3312,-0.3323,-0.3351,-0.3363,-0.3395,-0.338,-0.3392,-0.3416,-0.3431,-0.3463,-0.3426,-0.3469,-0.347,-0.3464,-0.353,-0.3539,-0.3594,-0.3508,-0.3509,-0.351,0,-0.3183,-0.3209,-0.3268,-0.3293,-0.3306,-0.3334,-0.3364,-0.339,-0.3415,-0.3421,-0.3442,-0.3442,-0.348,-0.3457,-0.351,-0.3484,-0.3502,-0.3511,-0.3514,-0.352,-0.3494,-0.3539,-0.3611,-0.362,-0.3522,-0.3521,-0.3521,0,-0.3225,-0.3275,-0.3317,-0.333,-0.3359,-0.3379,-0.3392,-0.3415,-0.3435,-0.3461,-0.3474,-0.3505,-0.3523,-0.3547,-0.3556,-0.3538,-0.3608,-0.3586,-0.3616,-0.3616,-0.3633,-0.3632,-0.371,-0.3641,-0.3641,-0.364,-0.364,0,-0.3287,-0.3324,-0.3336,-0.3362,-0.3404,-0.3409,-0.345,-0.3462,-0.3483,-0.3512,-0.3509,-0.3537,-0.3546,-0.3575,-0.3582,-0.3625,-0.3633,-0.364,-0.3642,-0.3641,-0.3641,-0.3654,-0.3652,-0.3643,-0.3642,-0.3642,-0.3641,0,-0.3342,-0.3352,-0.3397,-0.3421,-0.3428,-0.3457,-0.3478,-0.3504,-0.3513,-0.355,-0.3559,-0.3575,-0.3609,-0.362,-0.3661,-0.3666,-0.3717,-0.3715,-0.3709,-0.371,-0.3739,-0.3737,-0.3831,-0.3844,-0.3764,-0.3765,-0.3765,0,-0.3382,-0.341,-0.3436,-0.3455,-0.3469,-0.35,-0.3519,-0.3525,-0.3546,-0.3576,-0.3598,-0.3632,-0.3659,-0.3714,-0.373,-0.3762,-0.3761,-0.3792,-0.3766,-0.3765,-0.3764,-0.3763,-0.3766,-0.3798,-0.3798,-0.3799,-0.38,0,-0.3452,-0.3455,-0.3483,-0.3513,-0.3536,-0.3559,-0.3582,-0.3598,-0.3608,-0.3631,-0.3666,-0.3687,-0.3729,-0.3763,-0.3795,-0.381,-0.3807,-0.3807,-0.3816,-0.3817,-0.3813,-0.3817,-0.3724,-0.3806,-0.3805,-0.3805,-0.3804,-0.3804,-0.3502,-0.3527,-0.355,-0.3581,-0.3598,-0.362,-0.3645,-0.3657,-0.3686,-0.372,-0.3722,-0.376,-0.3784,-0.3827,-0.3843,-0.3873,-0.3865,-0.3877,-0.3881,-0.3884,-0.3887,-0.3806,-0.3879,-0.3879,-0.3879,-0.3879,-0.3878,0,-0.3573,-0.3587,-0.3616,-0.3648,-0.3672,-0.3665,-0.369,-0.3712,-0.3745,-0.3767,-0.3794,-0.3834,-0.3867,-0.3884,-0.3917,-0.3938,-0.3938,-0.3947,-0.3947,-0.395,-0.3892,-0.3882,-0.3947,-0.3947,-0.3947,-0.3947,-0.3947,-0.3947,-0.3614,-0.3656,-0.3662,-0.3713,-0.3727,-0.3763,-0.3778,-0.3798,-0.3816,-0.3861,-0.3888,-0.3898,-0.3919,-0.3953,-0.3983,-0.3988,-0.4001,-0.4011,-0.4015,-0.3961,-0.3954,-0.3948,-0.3938,-0.4013,-0.4013,-0.407,-0.4071,-0.4071]},{"header":{"parameterUnit":"m.s-1","parameterCategory":1,"la1":30.2991,"la2":30.254,"lo1":-89.0895,"lo2":-89.0444,"dy":0.0017,"dx":0.0017,"nx":28,"ny":28,"refTime":"2025-09-18T03:00:00:Z","depth":0,"parameterNumber":3,"parameterNumberName":"V-component_of_WINDS"},"data":[0,0,0,0,0,0,0,0,0,0,0,0,0,0,0,0,0,0,0,0,0,0,0,0,0,0,0,0,0,0,0,0,0,0,0,0,0,0,0,0,0,0,0,0,0,0,0,0,0,0,0,0,0,0,0,0,0,0,-1.8931,-1.8931,0,-1.8936,-1.8936,-1.8936,-1.8937,-1.8937,-1.8937,-1.8937,-1.8941,-1.8941,-1.8941,0,0,0,0,0,0,0,0,0,0,0,0,0,-1.892,-1.8921,-1.8931,-1.8931,-1.8931,-1.8936,-1.8936,-1.8936,-1.8937,-1.8937,-1.8937,-1.8937,-1.8941,-1.8941,-1.8941,0,0,0,0,0,0,0,0,0,0,0,0,0,-1.8925,-1.8921,-1.8931,-1.8932,-1.8932,-1.8936,-1.8936,-1.8936,-1.8937,-1.8937,-1.8937,-1.8937,-1.8941,-1.8941,-1.8941,-1.8944,0,0,-1.8942,-1.8942,0,0,0,0,0,0,0,0,-1.8925,-1.8925,-1.8932,-1.8932,-1.8932,-1.8936,-1.8934,-1.8939,-1.8937,-1.8935,-1.8937,-1.8937,-1.8939,-1.894,-1.8941,-1.8944,-1.8944,-1.8942,-1.8942,-1.8942,-1.8942,0,0,0,0,0,0,0,-1.8924,-1.8925,-1.8933,-1.8932,-1.8932,-1.8932,-1.8932,-1.8935,-1.8937,-1.8935,-1.8935,-1.8936,-1.8939,-1.894,-1.8941,-1.8945,-1.8942,-1.8942,-1.8942,-1.8943,-1.8949,-1.895,0,0,0,0,0,0,-1.8924,-1.8925,-1.8933,-1.8933,-1.8928,-1.8932,-1.8933,-1.8935,-1.8937,-1.8938,-1.8936,-1.8936,-1.894,-1.8941,-1.8941,-1.8944,-1.8942,-1.8943,-1.8943,-1.8949,-1.8949,-1.895,0,0,0,0,0,0,-1.8924,-1.8925,-1.8932,-1.8929,-1.893,-1.8932,-1.8934,-1.8935,-1.8936,-1.8938,-1.8938,-1.8937,-1.894,-1.8941,-1.8943,-1.8944,-1.8943,-1.8943,-1.8949,-1.8949,-1.8949,-1.8949,0,0,0,0,0,0,-1.8924,-1.8925,-1.8926,-1.8929,-1.893,-1.8935,-1.8934,-1.8935,-1.8936,-1.8936,-1.8939,-1.8939,-1.894,-1.8943,-1.8943,-1.8944,-1.8943,-1.8949,-1.8949,-1.8949,-1.8949,-1.8949,-1.895,0,0,0,0,0,-1.8923,-1.8926,-1.8926,-1.8927,-1.8932,-1.8935,-1.8936,-1.8937,-1.8936,-1.8937,-1.8939,-1.8939,-1.8944,-1.8943,-1.8944,-1.8945,-1.8949,-1.8949,-1.8949,-1.8949,-1.8949,-1.895,0,0,0,0,0,0,-1.8923,-1.8926,-1.8927,-1.8931,-1.8932,-1.8935,-1.8937,-1.8937,-1.8939,-1.8939,-1.894,-1.8941,-1.8943,-1.8944,-1.8943,-1.8947,-1.8946,-1.8947,-1.8946,-1.8946,-1.8946,-1.8946,-1.8943,0,0,0,0,0,-1.8924,-1.8926,-1.8929,-1.8932,-1.8933,-1.8934,-1.8936,-1.8937,-1.8939,-1.8939,-1.8941,-1.8942,-1.8944,-1.8945,-1.8947,-1.8949,-1.895,-1.895,-1.895,-1.895,-1.8951,-1.8951,-1.8951,-1.895,-1.895,-1.895,0,0,-1.8925,-1.8927,-1.8928,-1.8932,-1.8933,-1.8935,-1.8935,-1.8938,-1.8939,-1.894,-1.8942,-1.8943,-1.8945,-1.8947,-1.8948,-1.8948,-1.8951,-1.8951,-1.8951,-1.8951,-1.8951,-1.8952,-1.8952,-1.895,-1.895,-1.895,0,0,-1.8927,-1.8929,-1.8932,-1.8933,-1.8936,-1.8937,-1.8937,-1.8939,-1.894,-1.8943,-1.8943,-1.8944,-1.8947,-1.8948,-1.8949,-1.8951,-1.8951,-1.8952,-1.8952,-1.8953,-1.8953,-1.8953,-1.8953,-1.8954,-1.8952,-1.8952,-1.8952,0,-1.8928,-1.8932,-1.8933,-1.8935,-1.8936,-1.8937,-1.8939,-1.894,-1.8943,-1.8943,-1.8943,-1.8947,-1.8948,-1.895,-1.8951,-1.8952,-1.8952,-1.8952,-1.8953,-1.8953,-1.8953,-1.8953,-1.8954,-1.8952,-1.8952,-1.8952,-1.8952,0,-1.8932,-1.8934,-1.8936,-1.8939,-1.894,-1.8942,-1.8943,-1.8944,-1.8945,-1.8945,-1.8947,-1.8949,-1.8951,-1.8951,-1.8952,-1.8953,-1.8953,-1.8953,-1.8952,-1.8953,-1.8954,-1.8954,-1.8952,-1.8952,-1.8952,-1.8952,0,0,-1.8936,-1.8938,-1.8939,-1.8939,-1.8942,-1.8943,-1.8945,-1.8947,-1.8947,-1.8949,-1.895,-1.8952,-1.8952,-1.8953,-1.8953,-1.8954,-1.8955,-1.8954,-1.8954,-1.8953,-1.8956,-1.8956,-1.8956,-1.8955,-1.8955,-1.8955,-1.8955,0,-1.8938,-1.8942,-1.8942,-1.8945,-1.8947,-1.8947,-1.8948,-1.8949,-1.895,-1.8951,-1.8952,-1.8953,-1.8953,-1.8953,-1.8954,-1.8954,-1.8955,-1.8954,-1.8955,-1.8955,-1.8955,-1.8956,-1.8956,-1.8957,-1.8956,-1.8956,-1.8956,0,-1.8942,-1.8943,-1.8946,-1.8947,-1.8948,-1.8949,-1.895,-1.8952,-1.8953,-1.8953,-1.8954,-1.8954,-1.8955,-1.8955,-1.8956,-1.8955,-1.8956,-1.8956,-1.8956,-1.8956,-1.8955,-1.8956,-1.8957,-1.8957,-1.8956,-1.8956,-1.8956,0,-1.8943,-1.8946,-1.8948,-1.8949,-1.895,-1.8951,-1.8951,-1.8952,-1.8953,-1.8954,-1.8954,-1.8955,-1.8956,-1.8956,-1.8957,-1.8956,-1.8958,-1.8957,-1.8957,-1.8957,-1.8958,-1.8958,-1.8959,-1.8958,-1.8958,-1.8958,-1.8958,0,-1.8946,-1.8948,-1.8949,-1.895,-1.8951,-1.8952,-1.8953,-1.8954,-1.8954,-1.8955,-1.8955,-1.8956,-1.8956,-1.8957,-1.8957,-1.8958,-1.8958,-1.8958,-1.8958,-1.8958,-1.8958,-1.8958,-1.8958,-1.8958,-1.8958,-1.8958,-1.8958,0,-1.8948,-1.8949,-1.8951,-1.8952,-1.8952,-1.8953,-1.8954,-1.8954,-1.8955,-1.8956,-1.8956,-1.8956,-1.8957,-1.8957,-1.8958,-1.8958,-1.8959,-1.8959,-1.8959,-1.8959,-1.8959,-1.8958,-1.896,-1.896,-1.8959,-1.8959,-1.8959,0,-1.895,-1.8951,-1.8952,-1.8952,-1.8953,-1.8954,-1.8955,-1.8955,-1.8955,-1.8956,-1.8957,-1.8957,-1.8958,-1.8959,-1.8959,-1.8959,-1.8959,-1.896,-1.8959,-1.8959,-1.8959,-1.8959,-1.8959,-1.896,-1.896,-1.896,-1.896,0,-1.8952,-1.8952,-1.8953,-1.8954,-1.8955,-1.8955,-1.8956,-1.8956,-1.8957,-1.8957,-1.8958,-1.8958,-1.8959,-1.8959,-1.896,-1.896,-1.896,-1.896,-1.896,-1.896,-1.8959,-1.8959,-1.8958,-1.896,-1.896,-1.896,-1.896,-1.896,-1.8954,-1.8955,-1.8955,-1.8956,-1.8956,-1.8957,-1.8957,-1.8958,-1.8958,-1.8959,-1.8959,-1.8959,-1.8959,-1.896,-1.896,-1.896,-1.896,-1.896,-1.896,-1.896,-1.896,-1.8959,-1.896,-1.896,-1.896,-1.896,-1.896,0,-1.8956,-1.8956,-1.8957,-1.8958,-1.8958,-1.8958,-1.8958,-1.8959,-1.8959,-1.8959,-1.896,-1.896,-1.896,-1.896,-1.896,-1.8961,-1.896,-1.8961,-1.896,-1.896,-1.896,-1.896,-1.8961,-1.8961,-1.8961,-1.8961,-1.8961,-1.8961,-1.8957,-1.8958,-1.8958,-1.8959,-1.8959,-1.896,-1.896,-1.896,-1.896,-1.8961,-1.8961,-1.8961,-1.8961,-1.8961,-1.8961,-1.8961,-1.8961,-1.8961,-1.8961,-1.896,-1.896,-1.896,-1.896,-1.8961,-1.8961,-1.8961,-1.8961,-1.8961]}]]